Simultaneous Nadir Overpasses (SNOs) Predictions

Prediction of SNOs between GOES-17 and METOP-B Satellite Orbit:

Table of predicted SNOs for the next 14.0 days since TLE Epoch: 1/6/2024
Index Date Time (GOES-17) GOES-17 Lat,Lon METOP-B Lat,Lon Distance(km) Time Diff (sec)
1 01/06/2024 16:23:27 0.01,-104.68 -0.13,-103.93 84.12 80
2 01/08/2024 04:42:32 0.01,-104.66 -0.85,-108.57 444.43 80
3 01/09/2024 04:19:15 0.01,-104.66 0.22,-103.58 122.57 80
4 01/10/2024 16:38:11 -0.00,-104.66 0.75,-108.17 399.50 80
5 01/11/2024 16:20:13 -0.00,-104.66 -0.32,-103.19 167.68 80
6 01/13/2024 04:39:18 -0.01,-104.64 -0.71,-107.80 360.43 80
7 01/14/2024 04:16:00 -0.01,-104.64 0.36,-102.82 206.73 80
8 01/15/2024 16:34:55 0.02,-104.64 0.66,-107.40 315.09 80
9 01/16/2024 16:16:59 0.02,-104.64 -0.48,-102.43 252.47 80
10 01/18/2024 04:36:03 -0.02,-104.63 -0.54,-107.05 274.98 80
11 01/19/2024 04:12:46 -0.02,-104.63 0.54,-102.06 292.18 80
